"Period start","avg(HW err(1)/warn(2) (#))","avg(Visibility (m))","avg(Weather code (#))","avg(Precip intensity (mm/h))","min(HW err(1)/warn(2) (#))","max(HW err(1)/warn(2) (#))","std(HW err(1)/warn(2) (#))","med(HW err(1)/warn(2) (#))","min(Visibility (m))","max(Visibility (m))","std(Visibility (m))","med(Visibility (m))","min(Weather code (#))","max(Weather code (#))","std(Weather code (#))","med(Weather code (#))","min(Precip intensity (mm/h))","max(Precip intensity (mm/h))","std(Precip intensity (mm/h))","med(Precip intensity (mm/h))"
2017-08-25 00:00:00,2,3032,10,0.00,2,2,0,2,2346,3640,428,3039,10,10,0,10,0.00,0.00,0.00,0.00
2017-08-25 00:10:00,2,4411,10,0.00,2,2,0,2,3133,7143,1369,3831,10,10,0,10,0.00,0.00,0.00,0.00
2017-08-25 00:20:00,2,4708,10,0.00,2,2,0,2,2935,6871,1312,5057,10,10,0,10,0.00,0.00,0.00,0.00
2017-08-25 00:30:00,2,3663,10,0.00,2,2,0,2,2790,4847,725,3450,10,10,0,10,0.00,0.00,0.00,0.00
2017-08-25 00:40:00,2,3657,10,0.00,2,2,0,2,2810,5297,702,3591,10,10,0,10,0.00,0.00,0.00,0.00
2017-08-25 00:50:00,2,3738,10,0.00,2,2,0,2,2750,4758,657,3494,10,10,0,10,0.00,0.00,0.00,0.00
2017-08-25 01:00:00,2,3856,10,0.00,2,2,0,2,2529,6174,1116,3548,10,10,0,10,0.00,0.00,0.00,0.00
2017-08-25 01:10:00,2,4254,10,0.00,2,2,0,2,2814,5765,882,4390,10,10,0,10,0.00,0.00,0.00,0.00
2017-08-25 01:20:00,2,4628,10,0.00,2,2,0,2,2715,6867,1452,4223,10,10,0,10,0.00,0.00,0.00,0.00
2017-08-25 01:30:00,2,3094,10,0.00,2,2,0,2,2290,3953,575,3052,10,10,0,10,0.00,0.00,0.00,0.00
2017-08-25 01:40:00,2,3296,10,0.00,2,2,0,2,2199,4176,637,3378,10,10,0,10,0.00,0.00,0.00,0.00
2017-08-25 01:50:00,2,2888,10,0.00,2,2,0,2,1933,3880,603,3076,10,10,0,10,0.00,0.00,0.00,0.00
2017-08-25 02:00:00,2,2589,10,0.00,2,2,0,2,1689,3351,460,2604,10,10,0,10,0.00,0.00,0.00,0.00
2017-08-25 02:10:00,2,3574,10,0.00,2,2,0,2,1940,5832,1337,3184,10,10,0,10,0.00,0.00,0.00,0.00
2017-08-25 02:20:00,2,5934,10,0.00,2,2,0,2,2518,12631,3496,4256,10,10,0,10,0.00,0.00,0.00,0.00
2017-08-25 02:30:00,2,5148,10,0.00,2,2,0,2,3620,7050,1156,4814,10,10,0,10,0.00,0.00,0.00,0.00
2017-08-25 02:40:00,2,10226,10,0.00,0,2,1,2,4855,17677,3192,10136,10,10,0,10,0.00,0.00,0.00,0.00
2017-08-25 02:50:00,2,5251,10,0.00,2,2,0,2,4079,7508,957,5094,10,10,0,10,0.00,0.00,0.00,0.00
2017-08-25 03:00:00,2,9329,10,0.00,2,2,0,2,5239,15155,3529,9014,10,10,0,10,0.00,0.00,0.00,0.00
2017-08-25 03:10:00,2,27126,4,0.00,0,2,1,2,15383,37459,7039,27676,0,10,5,0,0.00,0.00,0.00,0.00
2017-08-25 03:20:00,0,17593,0,0.00,0,0,0,0,10984,33592,5989,14997,0,0,0,0,0.00,0.00,0.00,0.00
2017-08-25 03:30:00,0,16696,0,0.00,0,0,0,0,12863,21844,2903,15610,0,0,0,0,0.00,0.00,0.00,0.00
2017-08-25 03:40:00,0,15800,0,0.00,0,0,0,0,10540,24143,4271,14470,0,0,0,0,0.00,0.00,0.00,0.00
2017-08-25 03:50:00,0,12917,0,0.00,0,0,0,0,6495,20187,3978,12725,0,0,0,0,0.00,0.00,0.00,0.00
2017-08-25 04:00:00,0,37784,0,0.00,0,0,0,0,7278,50000,15308,45005,0,0,0,0,0.00,0.00,0.00,0.00
2017-08-25 04:10:00,0,33476,0,0.00,0,0,0,0,8775,50000,19963,49318,0,0,0,0,0.00,0.00,0.00,0.00
2017-08-25 04:20:00,0,17163,0,0.00,0,0,0,0,5320,38852,11580,10418,0,0,0,0,0.00,0.00,0.00,0.00
2017-08-25 04:30:00,0,14691,0,0.00,0,0,0,0,3969,33759,9806,10833,0,0,0,0,0.00,0.00,0.00,0.00
2017-08-25 04:40:00,0,13098,10,0.00,0,0,0,0,3453,34634,11452,6766,10,10,0,10,0.00,0.00,0.00,0.00
2017-08-25 04:50:00,0,8390,8,0.00,0,0,0,0,4636,14602,3586,7808,0,10,4,10,0.00,0.00,0.00,0.00
2017-08-25 05:00:00,0,5841,10,0.00,0,0,0,0,3130,16308,3641,4972,10,10,0,10,0.00,0.00,0.00,0.00
2017-08-25 05:10:00,0,31696,10,0.00,0,0,0,0,5141,50000,18473,40860,10,10,0,10,0.00,0.00,0.00,0.00
2017-08-25 05:20:00,0,4697,6,0.00,0,0,0,0,3269,8916,1628,4168,0,10,5,10,0.00,0.00,0.00,0.00
2017-08-25 05:30:00,0,3015,10,0.00,0,0,0,0,1554,5402,1192,2758,10,10,0,10,0.00,0.00,0.00,0.00
2017-08-25 05:40:00,0,5112,10,0.00,0,0,0,0,1769,10822,2908,4498,10,10,0,10,0.00,0.00,0.00,0.00
2017-08-25 05:50:00,0,2326,10,0.00,0,0,0,0,1741,2955,440,2286,10,10,0,10,0.00,0.00,0.00,0.00
2017-08-25 06:00:00,0,2229,45,0.43,0,0,0,0,1670,3208,429,2070,10,61,18,51,0.00,1.30,0.36,0.42
2017-08-25 06:10:00,0,5858,56,1.04,0,0,0,0,2358,12613,3214,5093,51,61,5,56,0.40,2.30,0.62,0.78
2017-08-25 06:20:00,0,20294,58,0.89,0,0,0,0,9028,33488,8979,17980,51,61,5,61,0.40,2.00,0.45,0.78
2017-08-25 06:30:00,0,44632,55,0.18,0,0,0,0,37114,50000,4690,45430,51,61,5,51,0.05,0.35,0.09,0.20
2017-08-25 06:40:00,0,42578,52,0.65,0,0,0,0,34221,49858,5461,42836,51,52,0,52,0.35,0.95,0.18,0.68
2017-08-25 06:50:00,0,44955,51,0.39,0,0,0,0,31532,50000,5411,46256,51,52,0,51,0.05,0.95,0.26,0.30
2017-08-25 07:00:00,0,47639,53,0.35,0,0,0,0,42377,50000,2733,48429,41,61,7,51,0.05,0.80,0.22,0.30
2017-08-25 07:10:00,0,49614,57,0.08,0,0,0,0,46142,50000,1157,50000,41,61,8,61,0.00,0.30,0.08,0.05
2017-08-25 07:20:00,0,48885,8,0.01,0,0,0,0,45789,50000,1441,49722,0,41,16,0,0.00,0.05,0.02,0.00
2017-08-25 07:30:00,0,35641,0,0.00,0,0,0,0,5542,50000,14516,40008,0,0,0,0,0.00,0.00,0.00,0.00
2017-08-25 07:40:00,0,8698,5,0.00,0,0,0,0,4083,17085,3198,8630,0,10,5,5,0.00,0.00,0.00,0.00
2017-08-25 07:50:00,0,11071,10,0.00,0,0,0,0,4145,28026,7058,8053,10,10,0,10,0.00,0.00,0.00,0.00
2017-08-25 08:00:00,0,7821,15,0.01,0,0,0,0,2536,26792,6807,5450,10,61,15,10,0.00,0.05,0.02,0.00
2017-08-25 08:10:00,0,4091,36,0.07,0,0,0,0,2080,6137,1270,3911,10,61,21,51,0.00,0.25,0.09,0.00
2017-08-25 08:20:00,0,3545,10,0.00,0,0,0,0,1921,5447,1187,3562,10,10,0,10,0.00,0.00,0.00,0.00
2017-08-25 08:30:00,0,1990,10,0.00,0,0,0,0,1668,2626,329,1852,10,10,0,10,0.00,0.00,0.00,0.00
2017-08-25 08:40:00,0,3359,10,0.00,0,0,0,0,2243,5169,817,3050,10,10,0,10,0.00,0.00,0.00,0.00
2017-08-25 08:50:00,0,2119,10,0.00,0,0,0,0,1207,3264,707,1991,10,10,0,10,0.00,0.00,0.00,0.00
2017-08-25 09:00:00,0,2999,10,0.00,0,0,0,0,2060,4251,699,2830,10,10,0,10,0.00,0.00,0.00,0.00
2017-08-25 09:10:00,0,2107,10,0.00,0,0,0,0,1507,3391,478,2028,10,10,0,10,0.00,0.00,0.00,0.00
2017-08-25 09:20:00,0,2714,10,0.00,0,0,0,0,1825,3590,613,2660,10,10,0,10,0.00,0.00,0.00,0.00
2017-08-25 09:30:00,0,5068,10,0.00,0,0,0,0,2885,9303,1967,4634,10,10,0,10,0.00,0.00,0.00,0.00
2017-08-25 09:40:00,0,6052,10,0.00,0,0,0,0,4210,9873,1819,5443,10,10,0,10,0.00,0.00,0.00,0.00
2017-08-25 09:50:00,0,4189,10,0.00,0,0,0,0,2971,5396,801,4166,10,10,0,10,0.00,0.00,0.00,0.00
2017-08-25 10:00:00,0,10011,10,0.00,0,0,0,0,3269,17930,5519,8740,10,10,0,10,0.00,0.00,0.00,0.00
2017-08-25 10:10:00,0,19701,5,0.00,0,0,0,0,9890,31022,6233,20621,0,10,5,5,0.00,0.00,0.00,0.00
2017-08-25 10:20:00,0,32412,0,0.00,0,0,0,0,21482,41911,7444,33105,0,0,0,0,0.00,0.00,0.00,0.00
2017-08-25 10:30:00,0,31833,0,0.00,0,0,0,0,5444,49876,18675,40675,0,0,0,0,0.00,0.00,0.00,0.00
2017-08-25 10:40:00,0,4452,6,0.00,0,0,0,0,609,11699,3948,2044,0,10,5,10,0.00,0.00,0.00,0.00
2017-08-25 10:50:00,0,7940,10,0.00,0,0,0,0,1569,28160,8454,3514,10,10,0,10,0.00,0.00,0.00,0.00
2017-08-25 11:00:00,0,39618,7,0.00,0,0,0,0,25036,47413,6005,40695,0,10,5,10,0.00,0.00,0.00,0.00
2017-08-25 11:10:00,0,49295,0,0.00,0,0,0,0,46137,50000,1235,50000,0,0,0,0,0.00,0.00,0.00,0.00
2017-08-25 11:20:00,0,16291,3,0.00,0,0,0,0,1927,50000,19475,4032,0,10,5,0,0.00,0.00,0.00,0.00
2017-08-25 11:30:00,0,1577,10,0.00,0,0,0,0,998,2276,388,1666,10,10,0,10,0.00,0.00,0.00,0.00
2017-08-25 11:40:00,0,1644,10,0.00,0,0,0,0,1009,2665,589,1549,10,10,0,10,0.00,0.00,0.00,0.00
2017-08-25 11:50:00,0,2412,50,1.50,0,0,0,0,1232,3248,645,2515,10,61,14,52,0.00,3.70,1.09,1.12
2017-08-25 12:00:00,0,6763,35,0.42,0,0,0,0,2654,10182,2859,7481,10,52,20,52,0.00,2.00,0.63,0.03
2017-08-25 12:10:00,0,45150,5,0.00,0,0,0,0,19408,50000,9539,50000,0,10,5,5,0.00,0.00,0.00,0.00
2017-08-25 12:20:00,0,50000,0,0.00,0,0,0,0,50000,50000,0,50000,0,0,0,0,0.00,0.00,0.00,0.00
2017-08-25 12:30:00,0,50000,0,0.00,0,0,0,0,50000,50000,0,50000,0,0,0,0,0.00,0.00,0.00,0.00
2017-08-25 12:40:00,0,50000,0,0.00,0,0,0,0,50000,50000,0,50000,0,0,0,0,0.00,0.00,0.00,0.00
2017-08-25 12:50:00,0,50000,0,0.00,0,0,0,0,50000,50000,0,50000,0,0,0,0,0.00,0.00,0.00,0.00
2017-08-25 13:00:00,0,50000,0,0.00,0,0,0,0,50000,50000,0,50000,0,0,0,0,0.00,0.00,0.00,0.00
2017-08-25 13:10:00,0,50000,0,0.00,0,0,0,0,50000,50000,0,50000,0,0,0,0,0.00,0.00,0.00,0.00
2017-08-25 13:20:00,0,49858,0,0.00,0,0,0,0,48585,50000,424,50000,0,0,0,0,0.00,0.00,0.00,0.00
2017-08-25 13:30:00,0,50000,0,0.00,0,0,0,0,50000,50000,0,50000,0,0,0,0,0.00,0.00,0.00,0.00
2017-08-25 13:40:00,0,32827,0,0.00,0,0,0,0,8255,50000,18605,42678,0,0,0,0,0.00,0.00,0.00,0.00
2017-08-25 13:50:00,0,27852,0,0.00,0,0,0,0,11901,50000,13209,26449,0,0,0,0,0.00,0.00,0.00,0.00
2017-08-25 14:00:00,1,20912,0,0.00,0,2,1,0,5474,50000,17988,10614,0,0,0,0,0.00,0.00,0.00,0.00
2017-08-25 14:10:00,2,12901,12,0.02,0,2,1,2,4444,31423,9040,9409,0,61,24,0,0.00,0.20,0.06,0.00
2017-08-25 14:20:00,2,12127,18,0.02,2,2,0,2,7716,21704,4047,11651,0,51,22,10,0.00,0.10,0.03,0.00
2017-08-25 14:30:00,1,16372,0,0.00,0,2,1,2,7460,41527,11482,9646,0,0,0,0,0.00,0.00,0.00,0.00
2017-08-25 14:40:00,2,18644,0,0.00,2,2,0,2,8440,35900,7030,16830,0,0,0,0,0.00,0.00,0.00,0.00
2017-08-25 14:50:00,2,21376,0,0.00,2,2,0,2,11587,30040,4889,22103,0,0,0,0,0.00,0.00,0.00,0.00
2017-08-25 15:00:00,2,27021,0,0.00,0,2,1,2,8586,50000,14350,26012,0,0,0,0,0.00,0.00,0.00,0.00
2017-08-25 15:10:00,1,18486,0,0.00,0,2,1,0,8666,32174,7498,18760,0,0,0,0,0.00,0.00,0.00,0.00
2017-08-25 15:20:00,0,26473,0,0.00,0,0,0,0,12261,45304,11082,25750,0,0,0,0,0.00,0.00,0.00,0.00
2017-08-25 15:30:00,2,28215,0,0.00,0,2,1,2,12554,50000,12170,29016,0,0,0,0,0.00,0.00,0.00,0.00
2017-08-25 15:40:00,2,31367,0,0.00,0,2,1,2,9021,50000,17352,33710,0,0,0,0,0.00,0.00,0.00,0.00
2017-08-25 15:50:00,2,6384,24,0.12,2,2,0,2,4637,9004,1202,6260,0,61,26,10,0.00,0.55,0.19,0.00
2017-08-25 16:00:00,2,18688,10,0.01,2,2,0,2,7386,30550,7562,18751,0,51,20,0,0.00,0.10,0.03,0.00
2017-08-25 16:10:00,2,43645,0,0.00,2,2,0,2,25469,50000,8680,48052,0,0,0,0,0.00,0.00,0.00,0.00
2017-08-25 16:20:00,2,46589,0,0.00,2,2,0,2,41982,50000,3370,47662,0,0,0,0,0.00,0.00,0.00,0.00
2017-08-25 16:30:00,1,41169,0,0.00,0,2,1,2,35860,46527,3529,41692,0,0,0,0,0.00,0.00,0.00,0.00
2017-08-25 16:40:00,2,48803,0,0.00,2,2,0,2,44948,50000,1917,49806,0,0,0,0,0.00,0.00,0.00,0.00
2017-08-25 16:50:00,2,48372,0,0.00,0,2,1,2,45553,50000,1603,48824,0,0,0,0,0.00,0.00,0.00,0.00
2017-08-25 17:00:00,2,49368,0,0.00,2,2,0,2,46678,50000,1221,50000,0,0,0,0,0.00,0.00,0.00,0.00
2017-08-25 17:10:00,2,49942,0,0.00,2,2,0,2,49417,50000,175,50000,0,0,0,0,0.00,0.00,0.00,0.00
2017-08-25 17:20:00,2,49992,0,0.00,2,2,0,2,49919,50000,24,50000,0,0,0,0,0.00,0.00,0.00,0.00
2017-08-25 17:30:00,2,49944,0,0.00,2,2,0,2,49435,50000,170,50000,0,0,0,0,0.00,0.00,0.00,0.00
2017-08-25 17:40:00,2,50000,0,0.00,2,2,0,2,50000,50000,0,50000,0,0,0,0,0.00,0.00,0.00,0.00
2017-08-25 17:50:00,2,50000,0,0.00,2,2,0,2,50000,50000,0,50000,0,0,0,0,0.00,0.00,0.00,0.00
2017-08-25 18:00:00,2,49987,0,0.00,2,2,0,2,49866,50000,40,50000,0,0,0,0,0.00,0.00,0.00,0.00
2017-08-25 18:10:00,2,50000,0,0.00,2,2,0,2,50000,50000,0,50000,0,0,0,0,0.00,0.00,0.00,0.00
2017-08-25 18:20:00,2,50000,0,0.00,2,2,0,2,50000,50000,0,50000,0,0,0,0,0.00,0.00,0.00,0.00
2017-08-25 18:30:00,2,50000,0,0.00,2,2,0,2,50000,50000,0,50000,0,0,0,0,0.00,0.00,0.00,0.00
2017-08-25 18:40:00,2,50000,0,0.00,2,2,0,2,50000,50000,0,50000,0,0,0,0,0.00,0.00,0.00,0.00
2017-08-25 18:50:00,2,50000,0,0.00,2,2,0,2,50000,50000,0,50000,0,0,0,0,0.00,0.00,0.00,0.00
2017-08-25 19:00:00,2,50000,0,0.00,2,2,0,2,50000,50000,0,50000,0,0,0,0,0.00,0.00,0.00,0.00
2017-08-25 19:10:00,2,50000,0,0.00,2,2,0,2,50000,50000,0,50000,0,0,0,0,0.00,0.00,0.00,0.00
2017-08-25 19:20:00,2,50000,0,0.00,2,2,0,2,50000,50000,0,50000,0,0,0,0,0.00,0.00,0.00,0.00
2017-08-25 19:30:00,2,50000,0,0.00,2,2,0,2,50000,50000,0,50000,0,0,0,0,0.00,0.00,0.00,0.00
2017-08-25 19:40:00,2,50000,0,0.00,2,2,0,2,50000,50000,0,50000,0,0,0,0,0.00,0.00,0.00,0.00
2017-08-25 19:50:00,2,50000,0,0.00,2,2,0,2,50000,50000,0,50000,0,0,0,0,0.00,0.00,0.00,0.00
2017-08-25 20:00:00,2,50000,0,0.00,2,2,0,2,50000,50000,0,50000,0,0,0,0,0.00,0.00,0.00,0.00
2017-08-25 20:10:00,2,50000,0,0.00,2,2,0,2,50000,50000,0,50000,0,0,0,0,0.00,0.00,0.00,0.00
2017-08-25 20:20:00,2,48696,0,0.00,2,2,0,2,41732,50000,2722,50000,0,0,0,0,0.00,0.00,0.00,0.00
2017-08-25 20:30:00,2,14331,0,0.00,2,2,0,2,9011,19537,2987,15180,0,0,0,0,0.00,0.00,0.00,0.00
2017-08-25 20:40:00,2,13339,0,0.00,2,2,0,2,8917,24403,4051,12584,0,0,0,0,0.00,0.00,0.00,0.00
2017-08-25 20:50:00,2,30903,0,0.00,2,2,0,2,7656,49047,16103,38776,0,0,0,0,0.00,0.00,0.00,0.00
2017-08-25 21:00:00,2,11159,4,0.00,2,2,0,2,7232,22672,4590,9370,0,10,5,0,0.00,0.00,0.00,0.00
2017-08-25 21:10:00,2,8916,10,0.00,2,2,0,2,6576,14171,2154,8109,10,10,0,10,0.00,0.00,0.00,0.00
2017-08-25 21:20:00,2,10127,10,0.00,2,2,0,2,5460,16625,3144,9865,10,10,0,10,0.00,0.00,0.00,0.00
2017-08-25 21:30:00,2,24295,7,0.00,2,2,0,2,8418,43029,12421,24868,0,10,5,10,0.00,0.00,0.00,0.00
2017-08-25 21:40:00,2,42854,0,0.00,2,2,0,2,26490,50000,8779,47759,0,0,0,0,0.00,0.00,0.00,0.00
2017-08-25 21:50:00,2,35404,0,0.00,2,2,0,2,25312,44593,5690,36108,0,0,0,0,0.00,0.00,0.00,0.00
2017-08-25 22:00:00,2,24724,0,0.00,2,2,0,2,15334,43260,8815,21198,0,0,0,0,0.00,0.00,0.00,0.00
2017-08-25 22:10:00,2,49692,0,0.00,2,2,0,2,47758,50000,691,50000,0,0,0,0,0.00,0.00,0.00,0.00
2017-08-25 22:20:00,2,50000,0,0.00,2,2,0,2,50000,50000,0,50000,0,0,0,0,0.00,0.00,0.00,0.00
2017-08-25 22:30:00,2,49055,0,0.00,2,2,0,2,45367,50000,1709,50000,0,0,0,0,0.00,0.00,0.00,0.00
2017-08-25 22:40:00,2,49052,0,0.00,2,2,0,2,45493,50000,1619,50000,0,0,0,0,0.00,0.00,0.00,0.00
2017-08-25 22:50:00,2,48879,0,0.00,2,2,0,2,42789,50000,2252,50000,0,0,0,0,0.00,0.00,0.00,0.00
2017-08-25 23:00:00,2,49151,0,0.00,2,2,0,2,45549,50000,1691,50000,0,0,0,0,0.00,0.00,0.00,0.00
2017-08-25 23:10:00,2,40456,0,0.00,2,2,0,2,13706,50000,13198,46991,0,0,0,0,0.00,0.00,0.00,0.00
2017-08-25 23:20:00,2,42386,0,0.00,2,2,0,2,24114,50000,8094,45958,0,0,0,0,0.00,0.00,0.00,0.00
2017-08-25 23:30:00,2,47341,0,0.00,2,2,0,2,28656,50000,6297,50000,0,0,0,0,0.00,0.00,0.00,0.00
2017-08-25 23:40:00,2,28425,0,0.00,2,2,0,2,21341,40554,5545,27964,0,0,0,0,0.00,0.00,0.00,0.00
2017-08-25 23:50:00,2,15719,0,0.00,2,2,0,2,7653,25188,6166,14410,0,0,0,0,0.00,0.00,0.00,0.00
